Time,TemperatureF,DewpointF,PressureIn,WindDirection,WindDirectionDegrees,WindSpeedMPH,WindSpeedGustMPH,Humidity,HourlyPrecipIn,Conditions,Clouds,dailyrainin,SoftwareType,DateUTC
2013-10-21 00:23:00,57.0,47.0,29.95,SW,231,0.0,0.0,68,0.00,,,0.00,,2013-10-21 05:23:00,
2013-10-21 00:43:00,57.0,47.0,29.95,SW,231,0.0,0.0,70,0.00,,,0.00,,2013-10-21 05:43:00,
2013-10-21 00:52:00,55.0,47.0,29.95,SW,231,0.0,0.0,73,0.00,,,0.00,,2013-10-21 05:52:00,
2013-10-21 01:22:00,54.0,47.0,29.96,WSW,245,0.0,0.0,78,0.00,,,0.00,,2013-10-21 06:22:00,
2013-10-21 01:42:00,54.0,47.0,29.96,East,88,0.0,1.0,77,0.00,,,0.00,,2013-10-21 06:42:00,
2013-10-21 01:52:00,55.0,48.0,29.95,NW,314,0.0,3.0,77,0.00,,,0.00,,2013-10-21 06:52:00,
2013-10-21 02:22:00,57.0,49.0,29.96,WSW,258,0.0,2.0,75,0.00,,,0.00,,2013-10-21 07:22:00,
2013-10-21 02:42:00,57.0,50.0,29.95,SW,219,0.0,2.0,76,0.00,,,0.00,,2013-10-21 07:42:00,
2013-10-21 02:52:00,56.0,49.0,29.95,West,270,0.0,1.0,77,0.00,,,0.00,,2013-10-21 07:52:00,
2013-10-21 03:21:00,55.0,49.0,29.95,West,264,0.0,1.0,79,0.00,,,0.00,,2013-10-21 08:21:00,
2013-10-21 03:52:00,53.0,48.0,29.96,West,264,0.0,0.0,82,0.00,,,0.00,,2013-10-21 08:52:00,
2013-10-21 04:22:00,52.0,48.0,29.95,West,264,0.0,0.0,86,0.00,,,0.00,,2013-10-21 09:22:00,
2013-10-21 04:53:00,53.0,49.0,29.95,West,264,0.0,0.0,86,0.00,,,0.00,,2013-10-21 09:53:00,
2013-10-21 05:13:00,53.0,49.0,29.95,ENE,73,0.0,0.0,86,0.00,,,0.00,,2013-10-21 10:13:00,
2013-10-21 05:23:00,53.0,49.0,29.95,ENE,73,0.0,0.0,86,0.00,,,0.00,,2013-10-21 10:23:00,
2013-10-21 05:42:00,53.0,49.0,29.96,West,274,0.0,1.0,86,0.00,,,0.00,,2013-10-21 10:42:00,
2013-10-21 05:52:00,53.0,49.0,29.96,East,100,0.0,0.0,87,0.00,,,0.00,,2013-10-21 10:52:00,
2013-10-21 06:22:00,53.0,50.0,29.98,SSW,208,0.0,0.0,88,0.00,,,0.00,,2013-10-21 11:22:00,
2013-10-21 06:42:00,53.0,50.0,29.99,SSW,208,0.0,0.0,88,0.00,,,0.00,,2013-10-21 11:42:00,
2013-10-21 06:52:00,54.0,51.0,29.99,SSW,209,0.0,0.0,88,0.00,,,0.00,,2013-10-21 11:52:00,
2013-10-21 07:22:00,55.0,51.0,29.99,SSW,208,0.0,0.0,85,0.00,,,0.00,,2013-10-21 12:22:00,
2013-10-21 07:42:00,56.0,52.0,30.00,SSW,208,0.0,0.0,85,0.00,,,0.00,,2013-10-21 12:42:00,
2013-10-21 07:52:00,56.0,52.0,30.00,SSW,209,0.0,0.0,85,0.00,,,0.00,,2013-10-21 12:52:00,
2013-10-21 08:11:00,56.0,52.0,30.00,SSW,208,0.0,0.0,85,0.00,,,0.00,,2013-10-21 13:11:00,
2013-10-21 08:22:00,57.0,53.0,30.01,NW,317,0.0,0.0,85,0.00,,,0.00,,2013-10-21 13:22:00,
2013-10-21 08:42:00,57.0,53.0,30.00,North,355,0.0,1.0,85,0.00,,,0.00,,2013-10-21 13:42:00,
2013-10-21 08:52:00,57.0,53.0,30.00,SE,145,0.0,1.0,85,0.00,,,0.00,,2013-10-21 13:52:00,
2013-10-21 09:22:00,59.0,54.0,30.00,SW,225,0.0,2.0,85,0.00,,,0.00,,2013-10-21 14:22:00,
2013-10-21 09:42:00,60.0,55.0,30.01,North,6,0.0,3.0,84,0.00,,,0.00,,2013-10-21 14:42:00,
2013-10-21 09:52:00,61.0,56.0,30.01,NNE,15,0.0,3.0,83,0.00,,,0.00,,2013-10-21 14:52:00,
2013-10-21 10:21:00,63.0,57.0,30.01,SW,221,0.0,4.0,81,0.00,,,0.00,,2013-10-21 15:21:00,
2013-10-21 10:53:00,65.0,58.0,30.00,North,359,1.0,7.0,79,0.00,,,0.00,,2013-10-21 15:53:00,
2013-10-21 11:23:00,67.0,60.0,30.00,NNW,342,1.0,6.0,77,0.00,,,0.00,,2013-10-21 16:23:00,
2013-10-21 11:43:00,69.0,60.0,29.99,NNE,12,1.0,6.0,74,0.00,,,0.00,,2013-10-21 16:43:00,
2013-10-21 11:53:00,69.0,60.0,30.00,WNW,299,3.0,8.0,72,0.00,,,0.00,,2013-10-21 16:53:00,
2013-10-21 12:22:00,70.0,60.0,30.01,East,90,0.0,6.0,71,0.00,,,0.00,,2013-10-21 17:22:00,
2013-10-21 12:43:00,71.0,61.0,30.01,NE,54,1.0,8.0,70,0.00,,,0.00,,2013-10-21 17:43:00,
2013-10-21 12:53:00,72.0,61.0,30.01,NNE,13,1.0,6.0,69,0.00,,,0.00,,2013-10-21 17:53:00,
2013-10-21 13:22:00,72.0,60.0,30.00,ENE,70,0.0,6.0,67,0.00,,,0.00,,2013-10-21 18:22:00,
2013-10-21 13:42:00,71.0,60.0,30.00,NE,43,0.0,4.0,69,0.00,,,0.00,,2013-10-21 18:42:00,
2013-10-21 13:52:00,71.0,60.0,29.99,NE,56,1.0,6.0,69,0.00,,,0.00,,2013-10-21 18:52:00,
2013-10-21 14:22:00,71.0,60.0,29.98,NE,49,0.0,3.0,68,0.00,,,0.00,,2013-10-21 19:22:00,
2013-10-21 14:52:00,67.0,57.0,29.98,East,84,0.0,5.0,70,0.00,,,0.00,,2013-10-21 19:52:00,
2013-10-21 16:54:00,63.0,54.0,30.02,East,82,0.0,3.0,73,0.00,,,0.00,,2013-10-21 21:54:00,
2013-10-21 17:23:00,62.0,54.0,30.02,South,169,0.0,4.0,74,0.00,,,0.00,,2013-10-21 22:23:00,
2013-10-21 17:53:00,62.0,54.0,30.02,SW,233,0.0,6.0,75,0.00,,,0.00,,2013-10-21 22:53:00,
2013-10-21 18:22:00,61.0,53.0,30.03,WSW,257,0.0,4.0,76,0.00,,,0.00,,2013-10-21 23:22:00,
2013-10-21 18:53:00,61.0,54.0,30.04,SW,217,0.0,6.0,77,0.00,,,0.00,,2013-10-21 23:53:00,
2013-10-21 19:22:00,60.0,53.0,30.05,SE,131,0.0,2.0,78,0.00,,,0.00,,2013-10-22 00:22:00,
2013-10-21 19:53:00,59.0,53.0,30.06,ESE,110,0.0,4.0,80,0.00,,,0.00,,2013-10-22 00:53:00,
2013-10-21 20:22:00,59.0,52.0,30.08,SSE,155,0.0,10.0,79,0.00,,,0.00,,2013-10-22 01:22:00,
2013-10-21 20:52:00,57.0,50.0,30.09,SE,132,1.0,7.0,78,0.00,,,0.00,,2013-10-22 01:52:00,
2013-10-21 21:22:00,56.0,50.0,30.10,SW,217,0.0,3.0,80,0.00,,,0.00,,2013-10-22 02:22:00,
2013-10-21 21:52:00,55.0,50.0,30.11,SE,141,0.0,3.0,82,0.00,,,0.00,,2013-10-22 02:52:00,
2013-10-21 22:22:00,54.0,48.0,30.12,SW,219,0.0,3.0,81,0.00,,,0.00,,2013-10-22 03:22:00,
2013-10-21 22:55:00,53.0,47.0,30.14,SSW,210,0.0,3.0,80,0.00,,,0.00,,2013-10-22 03:55:00,
2013-10-21 23:13:00,53.0,47.0,30.14,SW,222,0.0,3.0,80,0.00,,,0.00,,2013-10-22 04:13:00,
2013-10-21 23:24:00,53.0,47.0,30.14,SW,222,0.0,3.0,80,0.00,,,0.00,,2013-10-22 04:24:00,
2013-10-21 23:55:00,52.0,47.0,30.14,SE,136,0.0,1.0,82,0.00,,,0.00,,2013-10-22 04:55:00,